COSMOS 249 DEB

Satellite information

Favourite Embed

Satellite Type and Status

DEBRISIN ORBIT

Key statistics

Satellite COSMOS 249 DEB at a glance.

Uptime

20657

Days in orbit

Revolutions

≈ 15.5

Per day

Orbit

LEO

Low Earth Orbit

Inclination

62.3

Latest

Satellite identification and parameters

Extended collection of information and parameters for COSMOS 249 DEB.

Object identification

Identified? True

Debris? True

Object name: COSMOS 249 DEB

International designator: 1968-091F

Object number (NORAD): 3509

Object ID (CCSDS): 3509

Country: COMMONWEALTH OF INDEPENDENT STATES (CIS)

Current information (Y/N): Y

RCS size: SMALL

Orbital parameters

Period: 93.045 minutes

Inclination: 62.323 deg

SMA: 6801.785 km

Apoapsis: 501.924 km

Periapsis: 345.376 km

RAAN: 325.2762 deg

Eccentricy: 0.0115079

Argument of periapsis: 82.0274 deg

Mean anomaly: 279.3883 deg

Mean motion: 15.47634472 rev/day

Mean motion (dot): 0.00149641 rev/day2

B* drag term: 0.0021751 1/REarth

Two-line elements (TLE)

Creation date: May 11, 2025, 2:40 a.m.

Reference frame: TEME

Reference center: EARTH

Epoch: May 10, 2025, 7:15 p.m. UTC

TLE line 0: 0 COSMOS 249 DEB

TLE line 1: 1 03509U 68091F 25130.80248659 .00149641 00000-0 21751-2 0 9997

TLE line 2: 2 03509 62.3230 325.2762 0115079 82.0274 279.3883 15.47634472846931

Live tracking on map

Real-time ground track for satellite COSMOS 249 DEB.

In-orbit conjunctions

A list of the most updated potential collisions computed for object COSMOS 249 DEB.

Target Orbit TCA Probability of collision Miss distance Type
OBJECT E SSO 2025-02-01 20:35:38 0.0003689358 826.0 (m) UNKNOWN
CZ-6A DEB LEO 2024-12-19 05:09:22 0.0001280726 641.0 (m) DEBRIS

Associated space launch

The I2P satellites were the first soviet coorbital ASAT system.

COSMOS 249 DEB was lifted into orbit during the mission ‘Tsiklon-2A | I2P 1’, on board a Tsiklon-2A space rocket.

The launch took place on Oct. 20, 1968, 4:02 a.m. from 90/20.

For more information about the launch, click the button.

Launch to space Tsiklon-2A | I2P 1
Tsiklon-2A | I2P 1

Agency: N/A

Status: Launch Successful

Launch date: Oct. 20, 1968, 4:02 a.m. UTC

Rocket: Tsiklon-2A

Launch pad: 90/20

Location: Baikonur Cosmodrome, Republic of Kazakhstan

...

Latest news about this satellite

There are no fresh news available about this satellite. Check back as we update our databases every day.


Newsletter sign-up

Weekly statistics, charts and insights to help you stay on top of the space industry.